View from above orbital plane
|
View from above satellite
|
Ground track
|
The orbit data is extracted from the following two-line orbital elements,
1 41334U 16010A 19343.76941453 0.00000000 00000-0 00000-0 0 05
2 41334 123.0014 15.7212 0003639 119.0975 240.9025 13.41433411 06
Epoch (UTC): | 09 December 2019 18:27:57 |
Eccentricity: | 0.0003639 |
inclination: | 123.0014° |
perigee height: | 1101 km |
apogee height: | 1106 km |
right ascension of ascending node: | 15.7212° |
argument of perigee: | 119.0975° |
revolutions per day: | 13.41433411 |
mean anomaly at epoch: | 240.9025° |
orbit number at epoch: | 0 |
The dashed part of the orbit path shows where the satellite is in the earth's shadow,
|
|